TimeCST,TemperatureF,Dew PointF,Humidity,Sea Level PressureIn,VisibilityMPH,Wind Direction,Wind SpeedMPH,Gust SpeedMPH,PrecipitationIn,Events,Conditions,WindDirDegrees,DateUTC
12:13 AM,33.4,25.3,72,30.04,10.0,ENE,9.2,-,N/A,,Clear,70,2012-11-30 06:13:00
12:32 AM,34.7,25.7,70,30.04,10.0,ENE,10.4,-,N/A,,Clear,60,2012-11-30 06:32:00
12:52 AM,34.7,25.7,70,30.04,10.0,ENE,10.4,-,N/A,,Clear,70,2012-11-30 06:52:00
1:13 AM,34.7,25.9,70,30.04,10.0,ENE,9.2,-,N/A,,Clear,70,2012-11-30 07:13:00
1:32 AM,34.3,26.2,72,30.04,10.0,ENE,8.1,-,N/A,,Clear,60,2012-11-30 07:32:00
1:52 AM,34.5,26.4,72,30.05,10.0,NE,4.6,-,N/A,,Clear,50,2012-11-30 07:52:00
2:13 AM,34.3,26.6,73,30.06,10.0,ENE,3.5,-,N/A,,Clear,70,2012-11-30 08:13:00
2:32 AM,34.7,27.1,74,30.07,10.0,East,4.6,-,N/A,,Mostly Cloudy,80,2012-11-30 08:32:00
2:52 AM,34.3,27.3,76,30.06,7.0,NE,6.9,-,N/A,,Scattered Clouds,50,2012-11-30 08:52:00
3:13 AM,34.7,27.5,75,30.05,7.0,ENE,9.2,-,N/A,,Scattered Clouds,70,2012-11-30 09:13:00
3:32 AM,34.2,27.5,77,30.05,7.0,ENE,9.2,-,N/A,,Clear,60,2012-11-30 09:32:00
3:52 AM,33.8,27.9,79,30.05,7.0,ENE,9.2,-,N/A,,Clear,60,2012-11-30 09:52:00
4:12 AM,33.3,27.7,80,30.05,7.0,ENE,8.1,-,N/A,,Scattered Clouds,70,2012-11-30 10:12:00
4:32 AM,33.4,27.9,80,30.06,7.0,ENE,4.6,-,N/A,,Mostly Cloudy,70,2012-11-30 10:32:00
4:52 AM,33.6,28.2,81,30.07,7.0,ENE,5.8,-,N/A,,Overcast,60,2012-11-30 10:52:00
5:12 AM,33.8,28.4,81,30.08,7.0,ENE,6.9,-,N/A,,Overcast,60,2012-11-30 11:12:00
5:32 AM,34.2,28.8,81,30.10,7.0,NE,6.9,-,N/A,,Overcast,40,2012-11-30 11:32:00
5:52 AM,34.2,28.8,81,30.08,7.0,ENE,8.1,-,N/A,,Overcast,70,2012-11-30 11:52:00
6:12 AM,34.2,28.9,81,30.10,7.0,NE,6.9,-,N/A,,Overcast,50,2012-11-30 12:12:00
6:32 AM,34.3,28.9,81,30.10,7.0,ENE,6.9,-,N/A,,Overcast,70,2012-11-30 12:32:00
6:52 AM,34.5,29.1,81,30.11,7.0,East,5.8,-,N/A,,Overcast,80,2012-11-30 12:52:00
7:12 AM,34.7,29.1,80,30.11,7.0,East,8.1,-,N/A,,Overcast,80,2012-11-30 13:12:00
7:32 AM,34.7,29.3,81,30.11,7.0,East,8.1,-,N/A,,Overcast,80,2012-11-30 13:32:00
7:52 AM,34.7,29.3,81,30.11,5.0,East,9.2,-,N/A,,Haze,80,2012-11-30 13:52:00
8:13 AM,34.7,29.3,81,30.11,5.0,East,8.1,-,N/A,,Haze,90,2012-11-30 14:13:00
8:32 AM,34.7,29.7,82,30.12,5.0,East,9.2,-,N/A,,Haze,90,2012-11-30 14:32:00
8:53 AM,35.1,29.8,81,30.12,5.0,East,10.4,-,N/A,,Haze,90,2012-11-30 14:53:00
9:12 AM,35.1,29.8,81,30.12,5.0,East,13.8,17.3,N/A,,Haze,100,2012-11-30 15:12:00
9:32 AM,35.2,29.8,81,30.13,5.0,East,11.5,-,N/A,,Haze,100,2012-11-30 15:32:00
9:53 AM,35.4,29.8,80,30.13,5.0,East,9.2,-,N/A,,Haze,100,2012-11-30 15:53:00
10:12 AM,35.4,29.8,80,30.15,5.0,East,9.2,-,N/A,,Haze,100,2012-11-30 16:12:00
10:32 AM,35.4,30.0,81,30.15,5.0,East,9.2,-,N/A,,Haze,100,2012-11-30 16:32:00
10:53 AM,35.6,30.2,81,30.14,5.0,East,9.2,-,N/A,,Haze,90,2012-11-30 16:53:00
11:12 AM,36.0,30.0,79,30.14,5.0,East,5.8,-,N/A,,Haze,100,2012-11-30 17:12:00
11:32 AM,36.1,30.0,78,30.14,5.0,ESE,6.9,-,N/A,,Haze,110,2012-11-30 17:32:00
11:52 AM,36.1,30.0,78,30.14,5.0,East,6.9,-,N/A,,Haze,90,2012-11-30 17:52:00
12:13 PM,36.5,30.0,77,30.14,5.0,East,6.9,-,N/A,,Haze,90,2012-11-30 18:13:00
12:32 PM,36.7,30.0,77,30.13,5.0,East,6.9,-,N/A,,Haze,90,2012-11-30 18:32:00
12:52 PM,36.9,30.0,76,30.12,5.0,East,9.2,-,N/A,,Haze,90,2012-11-30 18:52:00
1:13 PM,37.0,29.8,75,30.12,5.0,East,8.1,-,N/A,,Haze,100,2012-11-30 19:13:00
1:32 PM,37.4,30.0,75,30.13,5.0,ESE,6.9,-,N/A,,Haze,120,2012-11-30 19:32:00
1:52 PM,37.0,29.8,75,30.12,5.0,East,6.9,-,N/A,,Haze,80,2012-11-30 19:52:00
2:13 PM,37.2,29.8,75,30.12,5.0,East,9.2,-,N/A,,Haze,80,2012-11-30 20:13:00
2:32 PM,37.4,29.8,74,30.10,5.0,East,11.5,-,N/A,,Haze,80,2012-11-30 20:32:00
2:52 PM,36.9,29.8,76,30.11,5.0,East,10.4,-,N/A,,Haze,80,2012-11-30 20:52:00
3:13 PM,36.7,30.0,77,30.11,5.0,East,10.4,-,N/A,,Haze,90,2012-11-30 21:13:00
3:32 PM,36.3,30.2,78,30.10,5.0,ESE,8.1,-,N/A,,Haze,110,2012-11-30 21:32:00
3:52 PM,36.1,30.2,79,30.10,5.0,East,6.9,-,N/A,,Haze,100,2012-11-30 21:52:00
4:13 PM,36.0,30.4,80,30.11,5.0,East,8.1,-,N/A,,Haze,100,2012-11-30 22:13:00
4:32 PM,35.6,30.2,81,30.12,5.0,East,9.2,-,N/A,,Haze,90,2012-11-30 22:32:00
4:52 PM,35.6,30.2,81,30.12,5.0,East,10.4,-,N/A,,Haze,100,2012-11-30 22:52:00
5:13 PM,35.1,30.2,82,30.12,5.0,East,10.4,-,N/A,,Haze,100,2012-11-30 23:13:00
5:32 PM,35.1,30.2,82,30.11,5.0,ESE,8.1,-,N/A,,Haze,110,2012-11-30 23:32:00
5:52 PM,34.9,30.4,84,30.10,5.0,SSE,12.7,16.1,N/A,,Haze,150,2012-11-30 23:52:00
6:12 PM,34.7,30.6,85,30.10,5.0,SE,11.5,-,N/A,,Haze,140,2012-12-01 00:12:00
6:32 PM,34.7,30.7,85,30.10,5.0,ESE,8.1,-,N/A,,Overcast,120,2012-12-01 00:32:00
6:53 PM,34.7,30.9,86,30.09,5.0,SSE,10.4,-,N/A,,Overcast,150,2012-12-01 00:53:00
7:12 PM,34.7,31.1,87,30.10,5.0,SE,6.9,-,N/A,,Overcast,130,2012-12-01 01:12:00
7:32 PM,34.7,30.9,86,30.10,5.0,SE,4.6,-,N/A,,Overcast,140,2012-12-01 01:32:00
7:53 PM,34.5,31.1,87,30.08,5.0,SE,9.2,-,N/A,,Overcast,130,2012-12-01 01:53:00
8:12 PM,34.3,31.1,88,30.08,5.0,SSE,10.4,16.1,N/A,,Overcast,150,2012-12-01 02:12:00
8:32 PM,34.5,31.3,88,30.07,4.0,SE,6.9,-,N/A,,Overcast,130,2012-12-01 02:32:00
8:53 PM,34.7,31.5,88,30.07,4.0,SE,6.9,-,N/A,,Overcast,140,2012-12-01 02:53:00
9:12 PM,34.7,31.8,89,30.06,4.0,SE,9.2,-,N/A,,Overcast,130,2012-12-01 03:12:00
9:32 PM,34.7,31.8,89,30.07,4.0,SE,6.9,-,N/A,,Overcast,140,2012-12-01 03:32:00
9:53 PM,34.7,32.0,90,30.07,4.0,SE,9.2,-,N/A,,Overcast,130,2012-12-01 03:53:00
10:12 PM,34.7,32.0,90,30.08,4.0,SSE,9.2,-,N/A,,Overcast,150,2012-12-01 04:12:00
10:32 PM,34.9,32.0,89,30.08,4.0,SSE,8.1,-,N/A,,Overcast,160,2012-12-01 04:32:00
10:53 PM,35.1,32.2,89,30.07,3.0,SSE,8.1,-,N/A,,Overcast,150,2012-12-01 04:53:00
11:12 PM,35.1,32.4,90,30.07,2.5,SSE,8.1,-,N/A,,Overcast,150,2012-12-01 05:12:00
11:32 PM,35.2,32.5,90,30.06,2.5,SE,8.1,-,N/A,,Overcast,140,2012-12-01 05:32:00
11:52 PM,35.6,32.9,90,30.05,2.5,SSE,4.6,-,N/A,,Overcast,150,2012-12-01 05:52:00